Ocean City, MD

12:38 AM EDT on August 22, 2017 (GMT -0400)
Ocean City Municipal

Weather History for KOXB - January, 2014

Change the Weather History Date:

Wednesday, January 8, 2014

  Actual Average (KSBY) Record (KSBY)
Temperature  
Mean Temperature 19 °F -  
Max Temperature 28 °F 41 °F 70 °F (1930)
Min Temperature 10 °F 27 °F -4 °F (1912)
Degree Days  
Heating Degree Days 46    
Moisture  
Dew Point 6 °F    
Average Humidity 59    
Maximum Humidity 88    
Minimum Humidity 29    
Precipitation  
Precipitation 0.00 in - - ()
Sea Level Pressure  
Sea Level Pressure 30.55 in    
Wind  
Wind Speed 4 mph (NNW)    
Max Wind Speed 9 mph    
Max Gust Speed -    
Visibility 10 miles    
Events      
Averages and records for this station are not official NWS values.
T = Trace of Precipitation, MM = Missing Value Source: NWS Daily Summary

Daily Weather History Graph

Daily Weather History Graph

Search for Another Location

Airport or City:

Trip Planner

Search our weather history database for the weather conditions in past years. The results will help you decide how hot, cold, wet, or windy it might be!

Date:

Astronomy

Jan. 08, 2014 Rise Set
Actual Time 7:17 AM EST 4:57 PM EST
Civil Twilight 6:48 AM EST 5:26 PM EST
Nautical Twilight 6:15 AM EST 5:59 PM EST
Astronomical Twilight 5:43 AM EST 6:31 PM EST
Moon 11:45 AM EST (1/8) 12:23 AM EST (1/8)
Length of Visible Light 10h 38m
Length of Day
9h 39m
First Quarter, 56% of the Moon is Illuminated
Jan 8
First Quarter
Jan 15
Full
Jan 24
Last Quarter
Jan 30
New
Feb 6
First Quarter

Hourly Weather History & Observations

Time (EST) Temp. Windchill Dew Point Humidity Pressure Visibility Wind Dir Wind Speed Gust Speed Precip Events Conditions
12:53 AM 10.9 °F - 5.0 °F 77% 30.47 in 10.0 mi Calm Calm - N/A   Clear
1:53 AM 10.9 °F 2.9 °F 6.1 °F 81% 30.49 in 10.0 mi North 4.6 mph - N/A   Clear
2:53 AM 12.0 °F 4.1 °F 5.0 °F 73% 30.51 in 10.0 mi North 4.6 mph - N/A   Clear
3:53 AM 14.0 °F 2.0 °F 3.9 °F 64% 30.52 in 10.0 mi North 9.2 mph - N/A   Clear
4:53 AM 12.9 °F 3.8 °F 1.0 °F 59% 30.53 in 10.0 mi North 5.8 mph - N/A   Clear
5:53 AM 12.0 °F 5.9 °F 1.9 °F 64% 30.56 in 10.0 mi NNW 3.5 mph - N/A   Clear
6:53 AM 10.9 °F 1.4 °F 1.9 °F 67% 30.58 in 10.0 mi North 5.8 mph - N/A   Clear
7:53 AM 15.1 °F 4.2 °F 1.0 °F 54% 30.60 in 10.0 mi North 8.1 mph - N/A   Clear
8:53 AM 18.0 °F 7.7 °F -0.9 °F 44% 30.62 in 10.0 mi North 8.1 mph - N/A   Clear
9:53 AM 21.0 °F 14.6 °F -0.0 °F 40% 30.63 in 10.0 mi Variable 4.6 mph - N/A   Clear
10:53 AM 23.0 °F 14.7 °F -0.0 °F 37% 30.61 in 10.0 mi NNW 6.9 mph - N/A   Clear
11:53 AM 26.1 °F - 1.0 °F 34% 30.58 in 10.0 mi North - - N/A   Clear
12:53 PM 28.9 °F 23.9 °F -0.0 °F 29% 30.56 in 10.0 mi Variable 4.6 mph - N/A   Clear
1:53 PM 27.0 °F 18.0 °F 6.1 °F 41% 30.54 in 10.0 mi SE 9.2 mph - N/A   Clear
2:53 PM 28.9 °F 22.8 °F 5.0 °F 36% 30.53 in 10.0 mi South 5.8 mph - N/A   Clear
3:53 PM 28.0 °F 21.7 °F 7.0 °F 41% 30.53 in 10.0 mi South 5.8 mph - N/A   Clear
4:53 PM 26.1 °F 19.4 °F 9.0 °F 49% 30.55 in 10.0 mi SW 5.8 mph - N/A   Clear
5:53 PM 25.0 °F 18.1 °F 10.9 °F 55% 30.56 in 10.0 mi SW 5.8 mph - N/A   Clear
6:53 PM 25.0 °F 19.3 °F 12.9 °F 60% 30.57 in 10.0 mi WSW 4.6 mph - N/A   Clear
7:53 PM 19.0 °F - 10.9 °F 71% 30.56 in 10.0 mi Calm Calm - N/A   Clear
8:53 PM 19.0 °F - 12.9 °F 77% 30.57 in 10.0 mi Calm Calm - N/A   Clear
9:53 PM 18.0 °F - 14.0 °F 84% 30.56 in 10.0 mi Calm Calm - N/A   Clear
10:53 PM 17.1 °F - 14.0 °F 88% 30.55 in 10.0 mi Calm Calm - N/A   Clear
11:53 PM 19.9 °F - 16.0 °F 85% 30.54 in 10.0 mi Calm Calm - N/A   Clear